Ainsworth, NE

11:25 PM CST on January 21, 2018 (GMT -0600)
Ainsworth Municipal

Weather History for KANW - January, 2013

Change the Weather History Date:

Saturday, January 12, 2013

  Actual Average Record
Temperature  
Mean Temperature 8 °F -  
Max Temperature 12 °F 33 °F 51 °F (2001)
Min Temperature 5 °F 12 °F -11 °F (1997)
Degree Days  
Heating Degree Days 56    
Moisture  
Dew Point 1 °F    
Average Humidity 71    
Maximum Humidity 78    
Minimum Humidity 62    
Precipitation  
Precipitation 0.00 in - - ()
Sea Level Pressure  
Sea Level Pressure 29.98 in    
Wind  
Wind Speed 16 mph (NW)    
Max Wind Speed 24 mph    
Max Gust Speed 33 mph    
Visibility 9 miles    
Events      
Averages and records for this station are not official NWS values.
T = Trace of Precipitation, MM = Missing Value Source: NWS Daily Summary

Daily Weather History Graph

Daily Weather History Graph

Search for Another Location

Airport or City:

Trip Planner

Search our weather history database for the weather conditions in past years. The results will help you decide how hot, cold, wet, or windy it might be!

Date:

Astronomy

Jan. 12, 2013 Rise Set
Actual Time 8:08 AM CST 5:28 PM CST
Civil Twilight 7:36 AM CST 6:00 PM CST
Nautical Twilight 7:02 AM CST 6:35 PM CST
Astronomical Twilight 6:28 AM CST 7:09 PM CST
Moon 8:26 AM CST (1/12) 7:02 PM CST (1/12)
Length of Visible Light 10h 23m
Length of Day
9h 20m
New Moon, 1% of the Moon is Illuminated
Jan 12
New Moon
Jan 18
First Quarter
Jan 26
Full
Feb 3
Last Quarter
Feb 10
New

Hourly Weather History & Observations

Time (CST) Temp. Windchill Dew Point Humidity Pressure Visibility Wind Dir Wind Speed Gust Speed Precip Events Conditions
12:15 AM 12.7 °F -4.1 °F 6.4 °F 76% 29.76 in 10.0 mi WNW 17.3 mph 26.5 mph N/A   Overcast
12:35 AM 12.2 °F -7.1 °F 5.2 °F 73% 29.77 in 10.0 mi WNW 23.0 mph 28.8 mph N/A   Mostly Cloudy
12:55 AM 11.7 °F -7.4 °F 4.6 °F 73% 29.78 in 10.0 mi WNW 21.9 mph 27.6 mph N/A   Clear
1:15 AM 11.3 °F -6.5 °F 3.7 °F 72% 29.80 in 10.0 mi WNW 18.4 mph 27.6 mph N/A   Clear
1:35 AM 10.9 °F -5.9 °F 3.2 °F 71% 29.81 in 10.0 mi WNW 16.1 mph 27.6 mph N/A   Clear
1:55 AM 10.2 °F -6.3 °F 2.7 °F 72% 29.82 in 10.0 mi WNW 15.0 mph 23.0 mph N/A   Clear
2:15 AM 10.2 °F -5.0 °F 2.3 °F 70% 29.83 in 10.0 mi WNW 12.7 mph - N/A   Clear
2:35 AM 9.9 °F -7.9 °F 2.3 °F 71% 29.85 in 10.0 mi WNW 17.3 mph 20.7 mph N/A   Clear
2:55 AM 9.5 °F -7.8 °F 1.8 °F 71% 29.85 in 10.0 mi WNW 16.1 mph 21.9 mph N/A   Clear
3:15 AM 9.1 °F -4.9 °F 2.1 °F 73% 29.87 in 10.0 mi West 10.4 mph - N/A   Scattered Clouds
3:35 AM 9.1 °F -7.0 °F 3.2 °F 77% 29.88 in 10.0 mi WNW 13.8 mph 17.3 mph N/A   Mostly Cloudy
3:55 AM 9.3 °F -7.4 °F 1.4 °F 70% 29.87 in 10.0 mi WNW 15.0 mph 27.6 mph N/A   Scattered Clouds
4:15 AM 8.6 °F -7.0 °F 0.5 °F 70% 29.89 in 10.0 mi WNW 12.7 mph 24.2 mph N/A   Clear
4:35 AM 8.6 °F -10.0 °F 1.2 °F 72% 29.89 in 10.0 mi WNW 18.4 mph 25.3 mph N/A   Clear
4:55 AM 8.1 °F -8.4 °F 0.3 °F 71% 29.89 in 10.0 mi WNW 13.8 mph 20.7 mph N/A   Clear
5:15 AM 7.5 °F -9.7 °F 0.5 °F 73% 29.88 in 10.0 mi WNW 15.0 mph 19.6 mph N/A   Clear
5:35 AM 7.3 °F -9.3 °F -0.0 °F 72% 29.89 in 10.0 mi WNW 13.8 mph - N/A   Clear
5:55 AM 6.8 °F -8.6 °F -0.4 °F 72% 29.90 in 10.0 mi West 11.5 mph - N/A   Clear
6:15 AM 6.3 °F -10.0 °F 0.3 °F 77% 29.89 in 10.0 mi WNW 12.7 mph - N/A   Clear
6:35 AM 6.4 °F -11.1 °F -0.4 °F 74% 29.90 in 10.0 mi WNW 15.0 mph 19.6 mph N/A   Clear
6:55 AM 7.2 °F -11.4 °F -1.5 °F 68% 29.92 in 10.0 mi WNW 17.3 mph 24.2 mph N/A   Clear
7:15 AM 6.8 °F -8.6 °F -1.3 °F 69% 29.92 in 10.0 mi WNW 11.5 mph 20.7 mph N/A   Clear
7:35 AM 5.9 °F -9.7 °F -1.3 °F 72% 29.93 in 10.0 mi WNW 11.5 mph - N/A   Clear
7:55 AM 5.7 °F -11.4 °F 0.1 °F 78% 29.94 in 2.5 mi West 13.8 mph - N/A   Haze
8:15 AM 5.9 °F -10.5 °F -0.4 °F 75% 29.94 in 10.0 mi WNW 12.7 mph 19.6 mph N/A   Clear
8:35 AM 5.9 °F -9.7 °F -1.3 °F 72% 29.95 in 10.0 mi WNW 11.5 mph 19.6 mph N/A   Clear
8:55 AM 6.4 °F -12.3 °F -0.8 °F 72% 29.96 in 10.0 mi WNW 17.3 mph 21.9 mph N/A   Clear
9:15 AM 7.3 °F -10.6 °F -0.9 °F 69% 29.99 in 10.0 mi WNW 16.1 mph 24.2 mph N/A   Clear
9:35 AM 7.5 °F -10.3 °F -0.8 °F 69% 29.99 in 10.0 mi NW 16.1 mph 23.0 mph N/A   Clear
9:55 AM 8.2 °F -9.4 °F -0.2 °F 68% 30.01 in 10.0 mi NW 16.1 mph 23.0 mph N/A   Clear
10:15 AM 9.0 °F -10.0 °F 0.1 °F 67% 30.02 in 10.0 mi NW 19.6 mph 25.3 mph N/A   Clear
10:35 AM 9.5 °F -9.3 °F 0.1 °F 66% 30.02 in 10.0 mi NW 19.6 mph 28.8 mph N/A   Clear
10:55 AM 10.0 °F -8.6 °F 1.4 °F 68% 30.02 in 10.0 mi WNW 19.6 mph 26.5 mph N/A   Scattered Clouds
11:15 AM 10.4 °F -7.7 °F 1.9 °F 69% 30.02 in 10.0 mi NW 18.4 mph 25.3 mph N/A   Scattered Clouds
11:35 AM 10.4 °F -9.9 °F -0.4 °F 62% 30.02 in 10.0 mi NW 24.2 mph 31.1 mph N/A   Scattered Clouds
11:55 AM 10.4 °F -9.5 °F 2.5 °F 70% 30.01 in 3.0 mi NW 23.0 mph 31.1 mph N/A   Haze
12:15 PM 11.3 °F -8.3 °F 1.4 °F 64% 30.01 in 10.0 mi NW 23.0 mph 27.6 mph N/A   Scattered Clouds
12:35 PM 11.1 °F -8.5 °F 0.9 °F 63% 30.02 in 10.0 mi NW 23.0 mph 31.1 mph N/A   Mostly Cloudy
12:55 PM 10.8 °F -7.7 °F 1.0 °F 65% 30.02 in 10.0 mi NW 19.6 mph 26.5 mph N/A   Overcast
1:15 PM 10.4 °F -7.2 °F 1.4 °F 67% 30.03 in 7.0 mi NW 17.3 mph 24.2 mph N/A   Overcast
1:35 PM 10.9 °F -6.5 °F 1.9 °F 67% 30.02 in 7.0 mi NW 17.3 mph 25.3 mph N/A   Overcast
1:55 PM 11.1 °F -7.7 °F 2.3 °F 68% 30.03 in 5.0 mi NNW 20.7 mph 27.6 mph N/A   Haze
2:15 PM 11.8 °F -6.3 °F 2.5 °F 66% 30.03 in 7.0 mi NW 19.6 mph 27.6 mph N/A   Overcast
2:35 PM 11.3 °F -7.9 °F 1.9 °F 66% 30.03 in 7.0 mi NW 21.9 mph 29.9 mph N/A   Mostly Cloudy
2:55 PM 12.2 °F -6.3 °F 3.9 °F 69% 30.03 in 7.0 mi NW 20.7 mph 27.6 mph N/A   Overcast
3:15 PM 12.0 °F -6.5 °F 3.0 °F 67% 30.03 in 10.0 mi NW 20.7 mph 27.6 mph N/A   Overcast
3:35 PM 11.3 °F -8.3 °F 2.1 °F 67% 30.03 in 10.0 mi NNW 23.0 mph 33.4 mph N/A   Scattered Clouds
3:55 PM 11.5 °F -8.1 °F 2.8 °F 68% 30.03 in 7.0 mi NW 23.0 mph 31.1 mph N/A   Mostly Cloudy
4:15 PM 11.3 °F -7.0 °F 3.4 °F 70% 30.03 in 7.0 mi NW 19.6 mph 25.3 mph N/A   Mostly Cloudy
4:35 PM 10.9 °F -5.9 °F 2.5 °F 69% 30.03 in 10.0 mi NW 16.1 mph 28.8 mph N/A   Scattered Clouds
4:55 PM 10.2 °F -8.9 °F 1.8 °F 69% 30.03 in 10.0 mi NW 20.7 mph 28.8 mph N/A   Scattered Clouds
5:15 PM 9.5 °F -8.3 °F 2.1 °F 72% 30.03 in 10.0 mi NW 17.3 mph 23.0 mph N/A   Clear
5:35 PM 9.0 °F -10.5 °F 1.0 °F 70% 30.03 in 10.0 mi NW 20.7 mph 29.9 mph N/A   Clear
5:55 PM 8.6 °F -8.3 °F 1.4 °F 73% 30.04 in 10.0 mi NW 15.0 mph 21.9 mph N/A   Clear
6:15 PM 8.6 °F -8.3 °F 1.4 °F 73% 30.05 in 10.0 mi NW 15.0 mph - N/A   Mostly Cloudy
6:35 PM 8.6 °F -8.3 °F 1.4 °F 73% 30.07 in 10.0 mi NW 15.0 mph 18.4 mph N/A   Overcast
6:55 PM 8.6 °F -7.7 °F 1.4 °F 73% 30.08 in 10.0 mi NW 13.8 mph 19.6 mph N/A   Overcast
7:15 PM 8.6 °F -6.3 °F 1.8 °F 74% 30.09 in 10.0 mi NW 11.5 mph - N/A   Overcast
7:35 PM 8.4 °F -5.7 °F 1.6 °F 74% 30.10 in 10.0 mi NW 10.4 mph 16.1 mph N/A   Overcast
7:55 PM 8.2 °F -4.1 °F 1.2 °F 73% 30.10 in 10.0 mi NW 8.1 mph - N/A   Overcast
8:15 PM 8.4 °F -4.9 °F 1.0 °F 72% 30.11 in 10.0 mi NW 9.2 mph - N/A   Overcast
8:35 PM 8.2 °F -4.1 °F 0.9 °F 72% 30.11 in 10.0 mi NW 8.1 mph - N/A   Overcast
8:55 PM 8.2 °F -4.1 °F 0.9 °F 72% 30.11 in 10.0 mi NW 8.1 mph - N/A   Overcast
9:15 PM 8.2 °F -5.1 °F 0.5 °F 71% 30.11 in 10.0 mi NW 9.2 mph - N/A   Overcast
9:35 PM 8.2 °F -6.0 °F 0.5 °F 71% 30.11 in 10.0 mi NW 10.4 mph - N/A   Overcast
9:55 PM 8.2 °F -6.0 °F 0.1 °F 70% 30.11 in 10.0 mi NW 10.4 mph - N/A   Overcast
10:15 PM 8.1 °F -6.2 °F 0.1 °F 70% 30.09 in 10.0 mi NW 10.4 mph - N/A   Overcast
10:35 PM 7.5 °F -6.0 °F -0.0 °F 71% 30.09 in 10.0 mi NW 9.2 mph - N/A   Overcast
10:55 PM 7.3 °F -7.9 °F 0.1 °F 72% 30.09 in 10.0 mi NW 11.5 mph - N/A   Overcast
11:15 PM 6.8 °F -6.9 °F -0.0 °F 74% 30.09 in 10.0 mi NW 9.2 mph - N/A   Overcast
11:35 PM 6.4 °F -8.2 °F -0.2 °F 74% 30.09 in 10.0 mi NW 10.4 mph - N/A   Mostly Cloudy
11:55 PM 5.5 °F -8.4 °F -0.6 °F 76% 30.09 in 10.0 mi NW 9.2 mph - N/A   Scattered Clouds